TULLARI Weather Reports


Display with metric or nautical units.
time (UTC)temp
F
wind
direction
speed
MPH
gust
MPH
rain 1hr
in
rain 24hr
in
rain mn
in
humidity
%
barometer
mb
20260506110726 47 227 16.0 18.0 0.00 0.00 0.00 72 1015.0
20260506104727 47 220 15.0 17.0 0.00 0.00 0.00 71 1015.0
20260506102728 47 218 13.0 14.0 0.00 0.00 0.00 72 1014.9
20260506100729 47 221 13.0 14.0 0.00 0.00 0.00 75 1014.8
20260506094729 47 223 11.0 13.0 0.00 0.00 0.00 76 1014.7
20260506092728 46 244 8.0 9.0 0.00 0.00 0.00 76 1014.4
20260506090728 46 255 8.0 9.0 0.00 0.00 0.00 75 1014.3
20260506084729 45 265 8.0 9.0 0.00 0.00 0.00 85 1014.1
20260506082729 45 248 8.0 9.0 0.00 0.00 0.00 82 1014.1
20260506080728 45 239 9.0 9.0 0.00 0.00 0.00 82 1014.1
20260506072729 44 247 9.0 10.0 0.00 0.00 0.00 83 1013.8
20260506070728 44 240 9.0 9.0 0.00 0.00 0.00 84 1013.7
20260506060728 42 255 8.0 9.0 0.00 0.00 0.00 83 1013.2
20260506050727 41 273 7.0 11.0 0.00 0.00 0.00 78 1012.7
20260506044728 41 288 7.0 9.0 0.00 0.00 0.00 76 1012.5
20260506042727 42 304 7.0 10.0 0.00 0.00 0.00 74 1012.2
20260506040727 41 304 9.0 11.0 0.00 0.00 0.00 77 1012.0
20260506034728 41 309 9.0 12.0 0.00 0.00 0.00 77 1011.9
20260506032727 41 308 9.0 12.0 0.00 0.00 0.00 79 1011.6
20260506030727 41 302 9.0 12.0 0.00 0.00 0.00 80 1011.5
20260506024727 40 289 9.0 12.0 0.00 0.00 0.00 83 1011.3
20260506022727 41 272 11.0 13.0 0.00 0.00 0.00 83 1011.2
20260506020726 41 271 11.0 13.0 0.00 0.00 0.00 85 1011.1
20260506014727 41 270 11.0 13.0 0.00 0.00 0.00 85 1010.9
20260506012726 41 278 8.0 9.0 0.00 0.00 0.00 87 1010.6
20260506010727 41 284 9.0 11.0 0.00 0.00 0.00 87 1010.4
20260506004726 41 275 9.0 11.0 0.00 0.00 0.00 89 1010.3
20260506002727 41 280 10.0 12.0 0.00 0.00 0.00 90 1010.2
20260506000727 41 289 10.0 13.0 0.00 0.00 0.00 89 1010.1
20260505234727 41 295 9.0 12.0 0.00 0.00 0.00 88 1010.0
20260505232727 40 284 8.0 10.0 0.00 0.00 0.00 90 1009.9
20260505230727 40 284 8.0 11.0 0.00 0.00 0.00 91 1009.8
20260505224726 40 286 10.0 12.0 0.00 0.00 0.00 90 1009.7
20260505222726 41 283 10.0 14.0 0.00 0.00 0.00 91 1009.7
20260505220726 41 284 12.0 14.0 0.00 0.00 0.00 90 1009.7
20260505214727 41 286 11.0 13.0 0.00 0.00 0.00 90 1009.6
20260505212727 41 284 14.0 15.0 0.00 0.00 0.00 89 1009.5
20260505210725 41 285 15.0 17.0 0.00 0.00 0.00 87 1009.4
20260505204726 41 284 14.0 17.0 0.00 0.00 0.00 79 1009.3
20260505202727 41 280 13.0 15.0 0.00 0.00 0.00 77 1009.2
20260505200725 41 280 14.0 17.0 0.00 0.00 0.00 75 1009.0
20260505194725 42 274 15.0 18.0 0.00 0.00 0.00 73 1008.9
20260505192726 42 279 13.0 16.0 0.00 0.00 0.00 75 1008.8
20260505190725 42 278 16.0 18.0 0.00 0.00 0.00 74 1008.7
20260505184725 42 286 17.0 19.0 0.00 0.00 0.00 71 1008.6
20260505182725 42 286 17.0 20.0 0.00 0.00 0.00 69 1008.4
20260505180725 43 283 19.0 22.0 0.00 0.00 0.00 67 1008.2
20260505174725 43 281 15.0 19.0 0.00 0.00 0.00 70 1008.1
20260505172724 43 263 14.0 17.0 0.00 0.00 0.00 80 1008.0
20260505170724 43 253 16.0 18.0 0.00 0.00 0.00 81 1007.9
20260505164724 43 250 19.0 20.0 0.00 0.00 0.00 83 1007.9
20260505162725 43 245 19.0 20.0 0.00 0.00 0.00 85 1007.9
20260505160724 44 247 19.0 21.0 0.00 0.00 0.00 82 1007.8
20260505152724 45 251 19.0 22.0 0.00 0.00 0.00 80 1007.6
20260505150724 45 250 19.0 21.0 0.00 0.00 0.00 80 1007.7
20260505124723 45 266 19.0 22.0 0.00 0.00 0.00 72 1007.0
20260505122724 45 271 19.0 22.0 0.00 0.00 0.00 67 1006.8
20260505120724 45 269 19.0 22.0 0.00 0.00 0.00 74 1006.6
20260505114724 45 271 18.0 20.0 0.00 0.00 0.00 73 1006.5
20260505112724 45 277 20.0 22.0 0.00 0.00 0.00 70 1006.4